sat.trackr.live / text

‹ back to catalog

STARLINK-34527

NORAD 64482 · 2025-133L

PAYLOAD ACTIVE UNKNOWN

§ Identity

Operator
Country
US
Launch date
2025-06-23
Launch site
AFETR
Launch vehicle
Mass (kg)
RCS (m²)

Purposes: comms

External: N2YO · Heavens-Above · Gunter

§ Orbital elements

Epoch: 2026-09-20T09:22:23.458656Z

Period
93.85 min
Inclination
53.1581°
Eccentricity
0.0001269
Mean motion
15.34393935 rev/d
Perigee alt
461.9 km
Apogee alt
463.6 km
Semi-major
6,840.9 km
B*
3.0238e-4
RAAN
289.9063°
Arg perigee
87.4858°
Mean anomaly
272.6290°
Rev number
7,102

§ Raw data

STARLINK-345271 64482U 25133L   26263.39054929  .00009852  00000+0  30238-3 0  99902 64482  53.1581 289.9063 0001269  87.4858 272.6290 15.34393935 71027

JSON: /api/v1/satellites/64482 · /tle

For live sub-satellite position, see the globe view (requires WebGL).

§ Visibility from observer

Set your observer location to see the next 7 days of passes ≥ 10°. The values pass through the URL so the page stays shareable.

No JS? Fill the form by hand. The geolocation button needs JavaScript.